Nashua, NH

8:42 PM EDT on August 18, 2019 (GMT -0400)
Boire

Weather History for KASH - May, 2019

Change the Weather History Date:

Thursday, May 30, 2019

  Actual Average Record
Temperature  
Mean Temperature 60 °F -  
Max Temperature 70 °F 74 °F 93 °F (1987)
Min Temperature 50 °F 49 °F 32 °F (1949)
Degree Days  
Heating Degree Days 6    
Growing Degree Days 10 (Base 50)    
Moisture  
Dew Point 55 °F    
Average Humidity 87    
Maximum Humidity 100    
Minimum Humidity 64    
Precipitation  
Precipitation 0.02 in - - ()
Sea Level Pressure  
Sea Level Pressure 29.78 in    
Wind  
Wind Speed 3 mph ()    
Max Wind Speed 9 mph    
Max Gust Speed -    
Visibility 9.8 miles    
Events Rain    
Averages and records for this station are not official NWS values.
T = Trace of Precipitation, MM = Missing Value Source: Averaged Metar Reports

Daily Weather History Graph

Daily Weather History Graph

Search for Another Location

Airport or City:

Astronomy

May. 30, 2019 Rise Set
Actual Time 5:11 AM EDT 8:16 PM EDT
Civil Twilight 4:37 AM EDT 8:50 PM EDT
Nautical Twilight 3:54 AM EDT 9:33 PM EDT
Astronomical Twilight 3:02 AM EDT 10:25 PM EDT
Moon 3:23 AM EDT (5/30) 4:13 PM EDT (5/30)
Length of Visible Light 16h 12m
Length of Day
15h 04m
Waning Crescent, 15% of the Moon is Illuminated
May 30
Waning Crescent
Jun 3
New
Jun 10
First Quarter
Jun 17
Full
Jun 25
Last Quarter

Hourly Weather History & Observations

Time (EDT) Temp. Dew Point Humidity Pressure Visibility Wind Dir Wind Speed Gust Speed Precip Events Conditions
12:56 AM 51.1 °F 48.9 °F 92% 29.83 in 10.0 mi SSE 3.5 mph - N/A   Overcast
1:56 AM 50.0 °F 48.9 °F 96% 29.82 in 10.0 mi Calm Calm - N/A   Overcast
2:21 AM 50.0 °F 48.2 °F 94% 29.79 in 10.0 mi SE 3.5 mph - N/A   Overcast
2:56 AM 50.0 °F 48.9 °F 96% 29.83 in 10.0 mi SE 3.5 mph - N/A   Overcast
3:19 AM 50.0 °F 50.0 °F 100% 29.78 in 10.0 mi SE 3.5 mph - N/A   Overcast
3:35 AM 50.0 °F 50.0 °F 100% 29.79 in 10.0 mi Calm Calm - N/A   Overcast
3:56 AM 50.0 °F 50.0 °F 100% 29.82 in 10.0 mi ESE 4.6 mph - N/A   Overcast
4:56 AM 50.0 °F 50.0 °F 100% 29.83 in 10.0 mi SE 3.5 mph - N/A   Overcast
5:11 AM 50.0 °F 50.0 °F 100% 29.81 in 10.0 mi Variable 3.5 mph - N/A   Overcast
5:56 AM 50.0 °F 50.0 °F 100% 29.84 in 10.0 mi SSE 3.5 mph - N/A   Overcast
6:56 AM 50.0 °F 50.0 °F 100% 29.86 in 6.0 mi Calm Calm - N/A   Overcast
7:56 AM 52.0 °F 51.1 °F 97% 29.85 in 10.0 mi Variable 3.5 mph - N/A   Overcast
8:56 AM 52.0 °F 51.1 °F 97% 29.86 in 10.0 mi ESE 4.6 mph - N/A   Overcast
9:56 AM 54.0 °F 52.0 °F 93% 29.85 in 10.0 mi Calm Calm - N/A   Overcast
10:40 AM 55.4 °F 53.6 °F 94% 29.82 in 10.0 mi Calm Calm - N/A   Overcast
10:56 AM 55.0 °F 53.1 °F 93% 29.86 in 10.0 mi South 3.5 mph - N/A   Overcast
11:56 AM 62.1 °F 54.0 °F 75% 29.83 in 10.0 mi Variable 3.5 mph - N/A   Mostly Cloudy
12:56 PM 63.0 °F 55.0 °F 75% 29.82 in 10.0 mi Variable 4.6 mph - N/A   Overcast
1:27 PM 64.4 °F 55.4 °F 73% 29.77 in 10.0 mi ESE 9.2 mph - N/A   Mostly Cloudy
1:35 PM 66.2 °F 55.4 °F 68% 29.77 in 10.0 mi Variable 4.6 mph - N/A   Mostly Cloudy
1:42 PM 66.2 °F 57.2 °F 73% 29.76 in 10.0 mi Calm Calm - N/A   Mostly Cloudy
1:56 PM 68.0 °F 57.0 °F 68% 29.79 in 10.0 mi Variable 3.5 mph - N/A   Mostly Cloudy
2:56 PM 66.9 °F 57.0 °F 70% 29.78 in 10.0 mi SSW 3.5 mph - N/A   Overcast
3:28 PM 69.8 °F 57.2 °F 64% 29.74 in 10.0 mi SE 8.1 mph - N/A   Mostly Cloudy
3:56 PM 68.0 °F 59.0 °F 73% 29.76 in 10.0 mi SSE 8.1 mph - N/A   Mostly Cloudy
4:56 PM 69.1 °F 59.0 °F 70% 29.72 in 10.0 mi SSE 8.1 mph - N/A   Mostly Cloudy
5:56 PM 66.9 °F 59.0 °F 76% 29.71 in 10.0 mi Variable 3.5 mph - N/A   Mostly Cloudy
6:54 PM 66.2 °F 60.8 °F 83% 29.69 in 10.0 mi Variable 6.9 mph - N/A   Scattered Clouds
6:56 PM 66.0 °F 59.0 °F 78% 29.72 in 10.0 mi Variable 3.5 mph - N/A   Scattered Clouds
7:56 PM 64.9 °F 60.1 °F 84% 29.72 in 10.0 mi Variable 3.5 mph - N/A   Mostly Cloudy
8:56 PM 63.0 °F 60.1 °F 90% 29.73 in 10.0 mi Variable 3.5 mph - N/A   Scattered Clouds
9:56 PM 63.0 °F 60.1 °F 90% 29.72 in 10.0 mi Variable 5.8 mph - 0.00 in Rain Light Rain
10:49 PM 60.8 °F 60.8 °F 100% 29.68 in 10.0 mi Calm Calm - 0.02 in Rain Light Rain
10:56 PM 61.0 °F 61.0 °F 100% 29.70 in 6.0 mi SE 3.5 mph - 0.02 in Rain Light Rain
11:56 PM 61.0 °F 61.0 °F 100% 29.68 in 10.0 mi Variable 3.5 mph - 0.00 in   Overcast